Date String (YYYY-MM-DD hh:mm:ss) UTC,Instrument flags,Ambient pressure (hPa),Sample flow (lpm),Bypass flow (lpm),Sample temperature (°C),Ambient temperature (°C),ASC tube jacket temperature (°C),LED temperature (°C),Box temperature (°C),Sample RH (%),Span deviation,Mass concentration (μg/m³),Mass concentration (μg/m³),Mass concentration (μg/m³)
DateTimeUTC,F1_M11,P_M11,Q1_M11,Q2_M11,T1_M11,T2_M11,T3_M11,T4_M11,T5_M11,U1_M11,ZSPAN_M11,X2_M11,X0_M11,X1_M11
2022-03-14 00:00:00,,0817.1,5.03,0.00,28.4,27.6,00.0,37.5,30.1,07.2,0000.0,0000.95,0001.98,0000.73
2022-03-14 00:01:00,,0817.1,4.99,0.00,28.4,27.6,00.0,37.5,30.1,07.3,0000.0,0000.92,0001.89,0000.74
2022-03-14 00:02:00,,0817.1,5.01,0.00,28.5,27.6,00.0,37.5,30.2,07.5,0000.0,0000.90,0001.53,0000.73
2022-03-14 00:03:00,,0817.2,5.00,0.00,28.5,27.6,00.0,37.5,30.1,07.5,0000.0,0000.91,0001.51,0000.74
2022-03-14 00:04:00,,0817.2,5.00,0.00,28.4,27.6,00.0,37.5,30.1,07.4,0000.0,0000.90,0001.48,0000.74
2022-03-14 00:05:00,,0817.2,5.02,0.00,28.5,27.6,00.0,37.5,30.2,07.3,0000.0,0000.88,0001.44,0000.73
2022-03-14 00:06:00,,0817.2,4.99,0.00,28.5,27.6,00.0,37.5,30.2,07.1,0000.0,0000.86,0001.41,0000.72
2022-03-14 00:07:00,,0817.2,4.99,0.00,28.5,27.7,00.0,37.5,30.2,07.3,0000.0,0000.85,0001.38,0000.72
2022-03-14 00:08:00,,0817.2,5.01,0.00,28.5,27.7,00.0,37.5,30.2,07.2,0000.0,0000.86,0001.42,0000.72
2022-03-14 00:09:00,,0817.2,4.99,0.00,28.5,27.7,00.0,37.5,30.2,07.2,0000.0,0000.89,0001.39,0000.72
2022-03-14 00:10:00,,0817.2,5.00,0.00,28.5,27.7,00.0,37.5,30.2,07.2,0000.0,0000.88,0001.22,0000.73
2022-03-14 00:11:00,,0817.2,5.00,0.00,28.5,27.7,00.0,37.5,30.2,07.4,0000.0,0000.88,0001.24,0000.73
2022-03-14 00:12:00,,0817.3,5.00,0.00,28.5,27.7,00.0,37.5,30.2,07.5,0000.0,0000.90,0001.31,0000.72
2022-03-14 00:13:00,,0817.2,5.01,0.00,28.5,27.7,00.0,37.5,30.2,07.5,0000.0,0000.94,0001.41,0000.72
2022-03-14 00:14:00,,0817.2,5.00,0.00,28.5,27.7,00.0,37.5,30.2,07.3,0000.0,0000.93,0001.38,0000.71
2022-03-14 00:15:00,,0817.3,4.99,0.00,28.5,27.7,00.0,37.5,30.2,07.3,0000.0,0000.93,0001.39,0000.71
2022-03-14 00:16:00,,0817.2,5.01,0.00,28.5,27.6,00.0,37.5,30.2,07.3,0000.0,0000.97,0001.44,0000.73
2022-03-14 00:17:00,,0817.2,5.00,0.00,28.5,27.6,00.0,37.5,30.2,07.4,0000.0,0000.99,0001.46,0000.74
2022-03-14 00:18:00,,0817.3,4.99,0.00,28.5,27.6,00.0,37.5,30.2,07.4,0000.0,0001.03,0001.60,0000.76
2022-03-14 00:19:00,,0817.4,5.01,0.00,28.5,27.6,00.0,37.5,30.1,07.4,0000.0,0001.08,0001.70,0000.76
2022-03-14 00:20:00,,0817.4,4.99,0.00,28.5,27.6,00.0,37.5,30.1,07.4,0000.0,0001.08,0001.69,0000.76
2022-03-14 00:21:00,,0817.3,5.02,0.00,28.5,27.6,00.0,37.5,30.2,07.4,0000.0,0001.08,0001.70,0000.76
2022-03-14 00:22:00,,0817.4,5.00,0.00,28.5,27.6,00.0,37.5,30.2,07.4,0000.0,0001.11,0001.74,0000.76
2022-03-14 00:23:00,,0817.4,5.00,0.00,28.5,27.6,00.0,37.5,30.2,07.2,0000.0,0001.10,0001.73,0000.76
2022-03-14 00:24:00,,0817.4,5.01,0.00,28.5,27.6,00.0,37.5,30.2,07.2,0000.0,0001.07,0001.66,0000.76
2022-03-14 00:25:00,,0817.4,4.99,0.00,28.5,27.6,00.0,37.5,30.2,07.2,0000.0,0001.10,0001.73,0000.77
2022-03-14 00:26:00,,0817.5,5.00,0.00,28.4,27.6,00.0,37.5,30.2,07.3,0000.0,0001.09,0001.70,0000.77
2022-03-14 00:27:00,,0817.4,5.01,0.00,28.5,27.6,00.0,37.5,30.2,07.4,0000.0,0001.08,0001.67,0000.76
2022-03-14 00:28:00,,0817.4,4.99,0.00,28.5,27.6,00.0,37.5,30.1,07.7,0000.0,0001.04,0001.62,0000.75
2022-03-14 00:29:00,,0817.4,4.99,0.00,28.4,27.6,00.0,37.5,30.1,07.8,0000.0,0001.03,0001.58,0000.74
2022-03-14 00:30:00,,0817.4,5.00,0.00,28.4,27.6,00.0,37.5,30.1,07.8,0000.0,0001.00,0001.49,0000.74
2022-03-14 00:31:00,,0817.4,4.99,0.00,28.4,27.5,00.0,37.4,30.0,07.8,0000.0,0000.99,0001.51,0000.75
2022-03-14 00:32:00,,0817.4,5.01,0.00,28.4,27.5,00.0,37.4,30.1,07.7,0000.0,0000.97,0001.48,0000.74
2022-03-14 00:33:00,,0817.4,4.99,0.00,28.4,27.5,00.0,37.4,30.1,07.8,0000.0,0000.97,0001.51,0000.74
2022-03-14 00:34:00,,0817.4,5.00,0.00,28.4,27.5,00.0,37.4,30.1,07.5,0000.0,0000.95,0001.48,0000.74
2022-03-14 00:35:00,,0817.5,4.99,0.00,28.4,27.5,00.0,37.4,30.1,07.4,0000.0,0000.96,0001.54,0000.74
2022-03-14 00:36:00,,0817.4,5.00,0.00,28.4,27.5,00.0,37.4,30.0,07.7,0000.0,0000.93,0001.46,0000.73
2022-03-14 00:37:00,,0817.4,5.02,0.00,28.4,27.5,00.0,37.4,30.0,07.8,0000.0,0000.96,0001.55,0000.73
2022-03-14 00:38:00,,0817.5,4.99,0.00,28.4,27.5,00.0,37.4,30.0,08.0,0000.0,0000.94,0001.52,0000.73
2022-03-14 00:39:00,,0817.5,5.00,0.00,28.4,27.5,00.0,37.4,30.1,08.1,0000.0,0000.96,0002.30,0000.74
2022-03-14 00:40:00,,0817.4,4.99,0.00,28.4,27.5,00.0,37.4,30.1,08.1,0000.0,0000.96,0003.44,0000.74
2022-03-14 00:41:00,,0817.5,5.02,0.00,28.4,27.5,00.0,37.4,30.1,08.1,0000.0,0000.95,0003.40,0000.73
2022-03-14 00:42:00,,0817.5,4.99,0.00,28.4,27.5,00.0,37.4,30.1,07.5,0000.0,0000.90,0003.24,0000.73
2022-03-14 00:43:00,,0817.5,5.00,0.00,28.4,27.5,00.0,37.4,30.1,07.5,0000.0,0000.91,0003.26,0000.73
2022-03-14 00:44:00,,0817.5,5.00,0.00,28.4,27.5,00.0,37.4,30.1,07.7,0000.0,0000.91,0003.26,0000.72
2022-03-14 00:45:00,,0817.5,4.99,0.00,28.4,27.5,00.0,37.4,30.1,07.5,0000.0,0000.87,0003.15,0000.71
2022-03-14 00:46:00,,0817.4,5.00,0.00,28.4,27.5,00.0,37.4,30.1,07.6,0000.0,0000.88,0003.11,0000.71
2022-03-14 00:47:00,,0817.5,5.01,0.00,28.4,27.5,00.0,37.4,30.1,07.8,0000.0,0000.90,0003.12,0000.71
2022-03-14 00:48:00,,0817.4,5.00,0.00,28.4,27.6,00.0,37.4,30.1,07.9,0000.0,0000.87,0003.07,0000.71
2022-03-14 00:49:00,,0817.4,4.99,0.00,28.4,27.5,00.0,37.4,30.0,07.8,0000.0,0000.89,0003.18,0000.72
2022-03-14 00:50:00,,0817.4,5.01,0.00,28.4,27.5,00.0,37.4,30.0,07.9,0000.0,0000.92,0002.96,0000.71
2022-03-14 00:51:00,,0817.5,4.98,0.00,28.4,27.5,00.0,37.4,30.0,08.1,0000.0,0000.95,0002.02,0000.71
2022-03-14 00:52:00,,0817.4,5.00,0.00,28.3,27.4,00.0,37.4,30.0,08.2,0000.0,0000.95,0001.89,0000.71
2022-03-14 00:53:00,,0817.4,5.00,0.00,28.3,27.4,00.0,37.4,30.0,07.9,0000.0,0000.94,0001.89,0000.71
2022-03-14 00:54:00,,0817.4,4.99,0.00,28.3,27.4,00.0,37.4,30.0,07.9,0000.0,0000.97,0001.95,0000.71
2022-03-14 00:55:00,,0817.4,5.00,0.00,28.3,27.4,00.0,37.4,30.0,07.8,0000.0,0000.98,0001.99,0000.72
2022-03-14 00:56:00,,0817.4,5.00,0.00,28.3,27.4,00.0,37.4,30.0,08.0,0000.0,0000.99,0001.99,0000.72
2022-03-14 00:57:00,,0817.4,4.99,0.00,28.3,27.4,00.0,37.4,30.0,08.2,0000.0,0000.98,0001.98,0000.72
2022-03-14 00:58:00,,0817.4,4.99,0.00,28.3,27.4,00.0,37.4,30.0,08.0,0000.0,0000.94,0001.91,0000.71
2022-03-14 00:59:00,,0817.5,5.02,0.00,28.3,27.4,00.0,37.4,30.0,08.0,0000.0,0000.94,0001.90,0000.71
